Showing default

FLOCK 4G 8, 62613

Orbit data source: Space-Track

FLOCK 4G 8, 62613 is a payload satellite owned by Planet (US) in SSO that was launched on Tue, 14 Jan 2025 UTC via an FALCON 9 launch vehicle from the Air Force Western Test Range (AFWTR). Payload-class satellites include a variety of spacecraft equipped with specific instruments for various scientific and technological missions. These include communications satellites like Starlink; space stations such as the ISS; scientific satellites like the Hubble; Earth observation satellites from companies like Planet Labs, Umbra, and HawkEye 360; GPS; miniature CubeSats for education and research; and military/defense satellites.

Loading next visibility...
Identifier
62613, 2025-009E
Orbit
SSO
Country
Flag of USUS
Related business
Manufacturer
Planet
Mission
Operational Commercial Imaging
Bus & Motor
CUBESAT 3U, Unknown motor
Mass
5.7 kg wet, 5.7 kg dry
Launch date (UTC)
2025-01-14 (9 months ago)
Launch vehicle
FALCON 9
Launch site
Air Force Western Test Range (AFWTR)
Object type
Payload
Rocket body
Debris
Shape & HBR
Box + 2 Pan, 1.0 m
Radar Cross Section
0.072 m², Medium (>0.1 m² and < 1m²)

Expand to show TLE details & history
Last TLE update: 22 hours ago

TLE from 22 hours ago
0 FLOCK 4G 8
1 62613U 25009E   25286.20061900  .00018908  00000-0  80053-3 0  9990
2 62613  97.4229   5.0508 0006102 106.2467 253.9442 15.23203516 41233
Epoch: 2025-10-13T04:48Z
TLE epoch observation values (Epoch: 2025-10-13T04:48:53.481Z)
Latitude
0.00002°
Longitude
-89.17885°
Altitude
500.442 km
Speed
7.614 km/s
True Right ascension
00h 20m 12s
True Declination
0° 00' 00"
Sunlit
Object was in full shadow at epoch
Visualization orbit readout
Latitude
Unknown
Longitude
Unknown
Altitude
Unknown
Speed
Unknown
Apparent Right ascension
Unknown
Apparent Declination
Unknown
Sunlit
N/A
Visualization observer readout
Local Sidereal Time
21:24:32
Azimuth
Unknown
Elevation
Unknown
Doppler factor
Unknown
Orbital elements
Apogee altitude
497.34 km
Perigee altitude
488.955 km
Semi-major axis
6,871.285 km
Eccentricity
0.00061
Inclination
97.4229°
RAAN
5.0508°
Arg. of periapsis
106.2467°
True anomaly
253.87702°
Mean anomaly
253.9442°
Eccentric anomaly
253.91061°
Mean motion
3.81054 °/min
Orbital period
94.47 mins
BSTAR
0.00080053
Loading maneuver chart data...
Computing Atmospheric mass density...
Loading historical data...
Loading historical data...
Loading historical data...
Loading historical data...
Loading historical data...
Loading historical data...
Loading historical data...

Documentation

Showing up to 5 results
|